Date,TemperatureHighF,TemperatureAvgF,TemperatureLowF,DewpointHighF,DewpointAvgF,DewpointLowF,HumidityHigh,HumidityAvg,HumidityLow,PressureMaxIn,PressureMinIn,WindSpeedMaxMPH,WindSpeedAvgMPH,GustSpeedMaxMPH,PrecipitationSumIn
2013-5-1,40.8,32.2,29.5,33.9,30.5,28.0,96,94,76,30.53,29.83,16,3,18,0.43
2013-5-5,64.8,56.6,42.8,31.1,23.7,19.9,59,30,18,30.15,29.99,5,1,14,0.00
2013-5-6,71.6,57.1,41.3,37.9,29.8,23.3,62,39,19,30.01,29.78,7,2,19,0.00
2013-5-7,68.4,57.4,44.5,51.0,45.0,35.7,86,64,47,29.82,29.66,11,2,18,0.00
2013-5-8,73.7,59.7,43.5,53.1,44.6,35.6,96,63,27,29.81,29.71,6,1,14,0.27
2013-5-9,67.1,56.8,45.7,46.7,42.9,36.9,85,62,34,29.96,29.80,12,3,18,0.00
2013-5-10,73.2,58.9,43.1,47.1,41.2,35.3,90,57,26,30.03,29.89,10,1,14,0.00
2013-5-11,67.3,56.8,44.6,42.7,30.0,21.7,64,39,20,30.20,30.01,6,1,14,0.00
2013-5-12,79.2,61.0,40.2,43.7,36.8,30.6,76,44,21,30.03,29.82,4,0,14,0.00
2013-5-13,93.4,74.9,51.3,47.5,40.1,34.2,71,34,13,29.84,29.61,5,1,14,0.00
2013-5-14,96.1,78.7,56.9,49.3,41.6,33.7,61,31,12,29.61,29.44,7,1,14,0.00
2013-5-15,81.2,70.3,61.2,45.5,39.5,34.5,42,33,23,29.65,29.53,5,1,17,0.00
2013-5-16,76.5,65.2,53.3,60.2,49.1,33.7,89,58,30,29.63,29.48,6,1,15,0.26
2013-5-17,86.3,73.2,58.9,61.5,54.4,48.8,81,55,28,29.62,29.44,15,5,25,0.00
2013-5-18,83.4,69.0,54.5,65.4,58.5,49.6,88,71,41,29.52,29.32,17,2,22,0.56
2013-5-19,58.6,55.3,52.6,54.0,52.4,50.7,96,90,80,29.53,29.43,13,3,21,2.13
2013-5-20,58.9,53.9,50.5,52.4,47.0,42.8,95,78,57,29.67,29.52,19,7,28,0.20
2013-5-21,59.8,53.3,46.5,45.5,42.8,40.7,83,68,54,29.77,29.67,17,7,29,0.00
2013-5-22,67.6,55.0,46.5,47.7,44.1,41.2,83,68,46,29.92,29.73,7,2,14,0.00
2013-5-23,68.8,58.7,47.6,49.0,46.0,42.7,87,64,45,30.02,29.90,8,2,15,0.00
2013-5-24,80.1,63.4,54.2,62.1,54.4,48.8,98,75,44,29.90,29.63,12,5,22,0.07
2013-5-25,88.4,71.8,60.4,59.6,54.7,46.8,88,59,24,29.74,29.52,8,2,22,0.00
2013-5-26,86.7,74.0,62.3,65.4,59.6,50.2,92,64,37,29.56,29.45,6,1,14,0.00
2013-5-27,72.5,64.0,57.5,64.6,58.1,48.4,96,82,54,29.57,29.39,27,2,27,0.08
2013-5-28,81.8,64.9,49.2,57.4,52.3,46.8,95,68,33,29.58,29.33,20,2,22,1.57
2013-5-29,72.3,60.3,53.5,59.0,54.6,51.2,94,82,59,29.48,29.12,10,1,18,0.58
2013-5-30,75.6,61.6,49.9,51.2,44.2,32.3,94,59,21,29.53,29.32,15,5,28,0.01
2013-5-31,68.8,57.6,45.5,45.6,40.8,32.5,87,57,29,29.69,29.50,20,9,26,0.01